OPS 4682 DEB, 29060

Orbit data source: Space-Track

OPS 4682 DEB, 29060 is space debris in LEO originally from a launch on Sat, 03 Apr 1965 UTC launched from the Air Force Western Test Range (AFWTR). Debris objects in space refer to the collection of defunct objects orbiting the Earth. Examples of debris include non-operational satellites, rocket bodies, and fragments generated from explosions, collisions, or faulty payload assembly.

Loading next visibility...
Identifier
29060, 1965-027BK
Orbit
LEO
Country
Flag of USUS
Related business
Manufacturer
Unknown
Mission
Spacecraft
Bus & Motor
Unknown
Mass
Unknown
Launch date (UTC)
1965-04-03 (61 years ago)
Launch vehicle
Unknown
Launch site
Air Force Western Test Range (AFWTR)
Object type
Payload
Rocket body
Debris
Shape & HBR
Unknown shape, 0.1 m
Radar Cross Section
Small (<0.1 m²)

Expand to show TLE details & history
Last TLE update: 9 hours ago

TLE from 9 hours ago
0 OPS 4682 DEB
1 29060U 65027BK  25349.81172338 -.00000015  00000-0 -79474-4 0  9996
2 29060  90.2386   6.1747 0030678 330.9599 213.7261 12.94755723440380
Epoch: 2025-12-15T19:28Z
TLE epoch observation values (Epoch: 2025-12-15T19:28:52.900Z)
Latitude
-4.62928°
Longitude
169.23013°
Altitude
1,305.872 km
Speed
7.194 km/s
True Right ascension
12h 24m 37s
True Declination
-4° 36' 13"
Sunlit
Object was in daylight at epoch
Visualization orbit readout
Latitude
Unknown
Longitude
Unknown
Altitude
Unknown
Speed
Unknown
Apparent Right ascension
Unknown
Apparent Declination
Unknown
Sunlit
N/A
Visualization observer readout
Local Sidereal Time
03:26:42
Azimuth
Unknown
Elevation
Unknown
Doppler factor
Unknown
Orbital elements
Apogee altitude
1,303.331 km
Perigee altitude
1,256.345 km
Semi-major axis
7,657.975 km
Eccentricity
0.00307
Inclination
90.2386°
RAAN
6.1747°
Arg. of periapsis
330.9599°
True anomaly
213.53154°
Mean anomaly
213.7261°
Eccentric anomaly
213.62876°
Mean motion
3.23871 °/min
Orbital period
111.16 mins
BSTAR
-0.000079474
Loading maneuver chart data...
Computing Atmospheric mass density...
Loading historical data...
Loading historical data...
Loading historical data...
Loading historical data...
Loading historical data...
Loading historical data...
Loading historical data...

Documentation

Showing up to 5 results
|